This is the latest recevied weather packets stored in our database for station/object IN3XSV. If no packets are shown the sender has not sent any weather packets the latest 10 day(s).
| Time | Temp. | Humidity | Pressure | Rain* | Wind** | Luminosity | Snow |
|---|---|---|---|---|---|---|---|
| 1777041848 | 24.44° C | 25% | 1007.1 hPa | 0 mm | - | - | - |
| 1777041580 | 24.44° C | 23% | 1007.2 hPa | 0 mm | - | - | - |
| 1777041548 | 24.44° C | 23% | 1007.2 hPa | 0 mm | - | - | - |
| 1777041248 | 24.44° C | 22% | 1007.2 hPa | 0 mm | - | - | - |
| 1777040948 | 23.89° C | 21% | 1007.3 hPa | 0 mm | - | - | - |
| 1777040648 | 24.44° C | 21% | 1007.3 hPa | 0 mm | - | - | - |
| 1777040348 | 25° C | 22% | 1007.4 hPa | 0 mm | - | - | - |
| 1777040048 | 24.44° C | 22% | 1007.5 hPa | 0 mm | - | - | - |
| 1777039748 | 24.44° C | 23% | 1007.5 hPa | 0 mm | - | - | - |
| 1777039448 | 23.89° C | 23% | 1007.5 hPa | 0 mm | - | - | - |
| 1777039148 | 23.89° C | 22% | 1007.5 hPa | 0 mm | - | - | - |
| 1777038848 | 23.89° C | 22% | 1007.6 hPa | 0 mm | - | - | - |
| 1777038548 | 23.33° C | 23% | 1007.6 hPa | 0 mm | - | - | - |
| 1777038286 | 23.89° C | 21% | 1007.8 hPa | 0 mm | - | - | - |
| 1777038248 | 23.89° C | 21% | 1007.8 hPa | 0 mm | - | - | - |
| 1777037948 | 23.89° C | 22% | 1007.7 hPa | 0 mm | - | - | - |
| 1777037648 | 23.33° C | 21% | 1007.8 hPa | 0 mm | - | - | - |
| 1777037380 | 23.33° C | 22% | 1007.9 hPa | 0 mm | - | - | - |
| 1777037348 | 23.33° C | 22% | 1007.9 hPa | 0 mm | - | - | - |
| 1777037048 | 24.44° C | 23% | 1007.9 hPa | 0 mm | - | - | - |
| 1777036748 | 23.33° C | 23% | 1008.1 hPa | 0 mm | - | - | - |
| 1777036448 | 23.33° C | 22% | 1008.1 hPa | 0 mm | - | - | - |
| 1777036148 | 23.89° C | 23% | 1008.3 hPa | 0 mm | - | - | - |
| 1777035879 | 23.33° C | 22% | 1008.1 hPa | 0 mm | - | - | - |
| 1777035848 | 23.33° C | 22% | 1008.1 hPa | 0 mm | - | - | - |
* Rain latest hour (hover to see other rain measurements)
** Current wind speed in m/s (hover to see current wind gust speed)